Back to catalog

USA 359

AliveMilitaryVLEO
NORAD 59819·PAYLOAD·🇺🇸 United States

Launched May 22, 2024 from Vandenberg Space Force Base

Loading…

Next Passes (next 24 hours)

TLE

StaleSource: Mike McCants

Epoch: Aug 25, 2026, 20:35 UTC

1 59819U 24096F   26237.85828323 0.00000000  00000-0  00000-0 0    05
2 59819  70.0163 152.0535 0001850 244.1291 115.8709 14.96713376    07

Track USA 359 in real time with AllMySat

Download on the App Store